Weather History for KMMK - March, 2013

Change the Weather History Date:

Wednesday, March 6, 2013

  Actual Average (KHVN) Record (KHVN)
Temperature  
Mean Temperature 38 °F -  
Max Temperature 42 °F 41 °F 61 °F (1974)
Min Temperature 34 °F 27 °F 10 °F (2007)
Degree Days  
Heating Degree Days 27    
Moisture  
Dew Point 30 °F    
Average Humidity 72    
Maximum Humidity 79    
Minimum Humidity 58    
Precipitation  
Precipitation 0.00 in - - ()
Sea Level Pressure  
Sea Level Pressure 29.98 in    
Wind  
Wind Speed 9 mph (NE)    
Max Wind Speed 21 mph    
Max Gust Speed 33 mph    
Visibility 10 miles    
Events Rain    
Averages and records for this station are not official NWS values.
T = Trace of Precipitation, MM = Missing Value Source: NWS Daily Summary

Daily Weather History Graph

Daily Weather History Graph

Search for Another Location

Airport or City:

Trip Planner

Search our weather history database for the weather conditions in past years. The results will help you decide how hot, cold, wet, or windy it might be!

Date:

Astronomy

Mar. 06, 2013 Rise Set
Actual Time 6:17 AM EST 5:47 PM EST
Civil Twilight 5:49 AM EST 6:15 PM EST
Nautical Twilight 5:17 AM EST 6:47 PM EST
Astronomical Twilight 4:45 AM EST 7:20 PM EST
Moon 2:27 AM EST (3/6) 12:23 PM EST (3/6)
Length of Visible Light 12h 25m
Length of Day
11h 30m
Waning Crescent, 30% of the Moon is Illuminated
Mar 6
Waning Crescent
Mar 11
New
Mar 19
First Quarter
Mar 27
Full
Apr 3
Last Quarter

Hourly Weather History & Observations

Time (EST) Temp. Windchill Dew Point Humidity Pressure Visibility Wind Dir Wind Speed Gust Speed Precip Events Conditions
12:53 AM 34.0 °F - 27.0 °F 75% 30.02 in 10.0 mi Calm Calm - N/A   Mostly Cloudy
1:53 AM 34.0 °F - 28.0 °F 79% 30.02 in 10.0 mi Calm Calm - N/A   Overcast
2:53 AM 36.0 °F 32.1 °F 28.0 °F 73% 30.01 in 10.0 mi NNE 4.6 mph - N/A   Overcast
3:35 AM 37.4 °F 34.9 °F 28.4 °F 70% 30.00 in 10.0 mi North 3.5 mph - N/A   Overcast
3:43 AM 37.4 °F 32.8 °F 28.4 °F 70% 30.00 in 10.0 mi NNE 5.8 mph - N/A   Overcast
3:53 AM 37.0 °F 32.4 °F 28.0 °F 70% 30.00 in 10.0 mi NE 5.8 mph - N/A   Overcast
4:53 AM 37.0 °F 31.0 °F 30.0 °F 76% 29.99 in 10.0 mi NE 8.1 mph - N/A   Scattered Clouds
5:25 AM 37.4 °F 32.8 °F 30.2 °F 75% 29.99 in 10.0 mi NNE 5.8 mph - 0.00 in   Overcast
5:53 AM 37.9 °F 31.5 °F 30.9 °F 76% 30.00 in 10.0 mi NE 9.2 mph 16.1 mph 0.00 in Rain Light Rain
6:53 AM 37.9 °F 30.9 °F 30.9 °F 76% 29.99 in 10.0 mi NE 10.4 mph 16.1 mph 0.00 in   Overcast
7:53 AM 37.9 °F 30.0 °F 32.0 °F 79% 29.99 in 10.0 mi NE 12.7 mph 23.0 mph N/A   Overcast
8:53 AM 39.0 °F 32.3 °F 33.1 °F 79% 29.99 in 10.0 mi NE 10.4 mph 16.1 mph 0.00 in   Overcast
9:53 AM 39.9 °F 33.9 °F 33.1 °F 77% 29.99 in 6.0 mi ENE 9.2 mph 17.3 mph 0.00 in Rain Light Rain
10:53 AM 41.0 °F 33.9 °F 34.0 °F 76% 29.98 in 10.0 mi NE 12.7 mph 21.9 mph 0.00 in Rain Light Rain
11:14 AM 41.0 °F 33.5 °F 32.0 °F 70% 29.97 in 10.0 mi East 13.8 mph 27.6 mph 0.00 in   Overcast
11:49 AM 41.0 °F 33.9 °F 33.8 °F 76% 29.97 in 10.0 mi ENE 12.7 mph 21.9 mph 0.00 in Rain Light Rain
11:53 AM 41.0 °F 32.5 °F 33.1 °F 73% 29.98 in 10.0 mi ENE 17.3 mph 23.0 mph 0.00 in Rain Light Rain
12:53 PM 42.1 °F 33.6 °F 30.0 °F 62% 29.96 in 10.0 mi ENE 18.4 mph 28.8 mph 0.00 in   Overcast
1:53 PM 42.1 °F 34.5 °F 28.0 °F 58% 29.94 in 10.0 mi ENE 15.0 mph 26.5 mph N/A   Overcast
2:53 PM 42.1 °F 34.2 °F 28.9 °F 60% 29.95 in 10.0 mi ENE 16.1 mph 29.9 mph N/A   Overcast
3:53 PM 39.9 °F 31.8 °F 30.9 °F 70% 29.95 in 10.0 mi NE 15.0 mph 26.5 mph 0.00 in Rain Light Rain
4:29 PM 39.2 °F 29.8 °F 32.0 °F 75% 29.95 in 10.0 mi NNE 18.4 mph 26.5 mph 0.00 in   Overcast
4:45 PM 39.2 °F 30.2 °F 30.2 °F 70% 29.96 in 9.0 mi ENE 17.3 mph 28.8 mph 0.00 in Rain Light Rain
4:53 PM 39.0 °F 29.9 °F 30.9 °F 73% 29.97 in 10.0 mi NE 17.3 mph 29.9 mph 0.00 in   Overcast
5:33 PM 37.4 °F 26.9 °F 30.2 °F 75% 29.96 in 10.0 mi NNE 20.7 mph 32.2 mph 0.00 in Rain Light Rain
5:46 PM 39.2 °F 32.5 °F 28.4 °F 65% 29.97 in 10.0 mi NE 10.4 mph 23.0 mph 0.00 in   Overcast
5:53 PM 39.0 °F 29.9 °F 28.9 °F 67% 29.98 in 10.0 mi NE 17.3 mph 33.4 mph 0.00 in   Overcast
6:11 PM 37.4 °F 27.8 °F 30.2 °F 75% 29.98 in 10.0 mi NNE 17.3 mph 26.5 mph N/A   Overcast
6:53 PM 37.9 °F 29.2 °F 28.9 °F 70% 29.99 in 10.0 mi NNE 15.0 mph 25.3 mph N/A   Overcast
7:23 PM 37.4 °F 28.2 °F 30.2 °F 75% 29.98 in 10.0 mi North 16.1 mph 25.3 mph N/A   Overcast
7:53 PM 37.0 °F 28.5 °F 28.9 °F 73% 29.99 in 10.0 mi NNE 13.8 mph 31.1 mph N/A   Overcast
8:09 PM 37.4 °F 27.8 °F 28.4 °F 70% 29.98 in 10.0 mi NNE 17.3 mph 27.6 mph N/A   Overcast
8:19 PM 37.4 °F 28.9 °F 28.4 °F 70% 29.98 in 10.0 mi NNE 13.8 mph 25.3 mph N/A   Overcast
8:53 PM 36.0 °F 26.3 °F 28.9 °F 76% 29.98 in 10.0 mi North 16.1 mph 27.6 mph N/A   Overcast
9:53 PM 37.0 °F 28.9 °F 28.0 °F 70% 29.97 in 10.0 mi North 12.7 mph 29.9 mph N/A   Overcast
10:20 PM 37.4 °F 28.2 °F 28.4 °F 70% 29.97 in 10.0 mi NNE 16.1 mph 27.6 mph N/A   Overcast
10:53 PM 36.0 °F 27.1 °F 28.0 °F 73% 29.98 in 10.0 mi NNE 13.8 mph 29.9 mph N/A   Overcast
11:53 PM 36.0 °F 27.1 °F 28.0 °F 73% 29.97 in 10.0 mi North 13.8 mph 23.0 mph N/A   Overcast